date,time,SUV Intensity [MED/Hr],UV Index,Daily total [MED],Since Last [MED]
17/04/2023,00:00:42,0.000,0.0,0.0,0.0
17/04/2023,00:01:41,0.000,0.0,0.0,0.0
17/04/2023,00:02:42,-0.001,0.0,0.0,0.0
17/04/2023,00:03:42,0.001,0.0,0.0,0.0
17/04/2023,00:04:42,-0.001,0.0,0.0,0.0
17/04/2023,00:05:42,-0.000,0.0,0.0,0.0
17/04/2023,00:06:42,0.001,0.0,0.0,0.0
17/04/2023,00:07:42,-0.000,0.0,0.0,0.0
17/04/2023,00:08:41,0.000,0.0,0.0,0.0
17/04/2023,00:09:42,0.000,0.0,0.0,0.0
17/04/2023,00:10:42,0.001,0.0,0.0,0.0
17/04/2023,00:11:42,0.000,0.0,0.0,0.0
17/04/2023,00:12:42,-0.000,0.0,0.0,0.0
17/04/2023,00:13:41,0.001,0.0,0.0,0.0
17/04/2023,00:14:42,-0.000,0.0,0.0,0.0
17/04/2023,00:15:42,0.000,0.0,0.0,0.0
17/04/2023,00:16:42,-0.000,0.0,0.0,0.0
17/04/2023,00:17:42,0.000,0.0,0.0,0.0
17/04/2023,00:18:41,0.000,0.0,0.0,0.0
17/04/2023,00:19:42,-0.001,0.0,0.0,0.0
17/04/2023,00:20:41,0.000,0.0,0.0,0.0
17/04/2023,00:21:42,-0.000,0.0,0.0,0.0
17/04/2023,00:22:42,0.000,0.0,0.0,0.0
17/04/2023,00:23:42,-0.001,0.0,0.0,0.0
17/04/2023,00:24:41,-0.000,0.0,0.0,0.0
17/04/2023,00:25:42,0.000,0.0,0.0,0.0
17/04/2023,00:26:42,-0.000,0.0,0.0,0.0
17/04/2023,00:27:42,-0.001,0.0,0.0,0.0
17/04/2023,00:28:42,0.000,0.0,0.0,0.0
17/04/2023,00:29:41,-0.000,0.0,0.0,0.0
17/04/2023,00:30:41,-0.000,0.0,0.0,0.0
17/04/2023,00:31:42,-0.001,0.0,0.0,0.0
17/04/2023,00:32:42,-0.001,0.0,0.0,0.0
17/04/2023,00:33:42,0.000,0.0,0.0,0.0
17/04/2023,00:34:41,0.000,0.0,0.0,0.0
17/04/2023,00:35:42,-0.000,0.0,0.0,0.0
17/04/2023,00:36:42,-0.001,0.0,0.0,0.0
17/04/2023,00:37:42,-0.000,0.0,0.0,0.0
17/04/2023,00:38:41,0.000,0.0,0.0,0.0
17/04/2023,00:39:42,0.000,0.0,0.0,0.0
17/04/2023,00:40:42,0.000,0.0,0.0,0.0
17/04/2023,00:41:42,0.000,0.0,0.0,0.0
17/04/2023,00:42:42,0.000,0.0,0.0,0.0
17/04/2023,00:43:42,0.001,0.0,0.0,0.0
17/04/2023,00:44:42,0.000,0.0,0.0,0.0
17/04/2023,00:45:41,-0.001,0.0,0.0,0.0
17/04/2023,00:46:42,-0.000,0.0,0.0,0.0
17/04/2023,00:47:41,0.001,0.0,0.0,0.0
17/04/2023,00:48:42,-0.001,0.0,0.0,0.0
17/04/2023,00:49:42,0.000,0.0,0.0,0.0
17/04/2023,00:50:42,0.000,0.0,0.0,0.0
17/04/2023,00:51:42,-0.000,0.0,0.0,0.0
17/04/2023,00:52:42,0.001,0.0,0.0,0.0
17/04/2023,00:53:41,-0.001,0.0,0.0,0.0
17/04/2023,00:54:42,0.001,0.0,0.0,0.0
17/04/2023,00:55:42,-0.001,0.0,0.0,0.0
17/04/2023,00:56:42,0.001,0.0,0.0,0.0
17/04/2023,00:57:42,-0.000,0.0,0.0,0.0
17/04/2023,00:58:42,0.000,0.0,0.0,0.0
17/04/2023,00:59:42,-0.000,0.0,0.0,0.0
17/04/2023,01:00:42,0.000,0.0,0.0,0.0
17/04/2023,01:01:41,-0.000,0.0,0.0,0.0
17/04/2023,01:02:41,-0.000,0.0,0.0,0.0
17/04/2023,01:03:42,-0.000,0.0,0.0,0.0
17/04/2023,01:04:42,-0.001,0.0,0.0,0.0
17/04/2023,01:05:41,-0.001,0.0,0.0,0.0
17/04/2023,01:06:42,-0.001,0.0,0.0,0.0
17/04/2023,01:07:42,-0.000,0.0,0.0,0.0
17/04/2023,01:08:42,-0.000,0.0,0.0,0.0
17/04/2023,01:09:42,0.001,0.0,0.0,0.0
17/04/2023,01:10:42,-0.000,0.0,0.0,0.0
17/04/2023,01:11:42,-0.000,0.0,0.0,0.0
17/04/2023,01:12:42,0.001,0.0,0.0,0.0
17/04/2023,01:13:41,0.001,0.0,0.0,0.0
17/04/2023,01:14:42,-0.001,0.0,0.0,0.0
17/04/2023,01:15:42,0.000,0.0,0.0,0.0
17/04/2023,01:16:42,0.000,0.0,0.0,0.0
17/04/2023,01:17:42,-0.001,0.0,0.0,0.0
17/04/2023,01:18:42,-0.000,0.0,0.0,0.0
17/04/2023,01:19:42,0.001,0.0,0.0,0.0
17/04/2023,01:20:42,0.000,0.0,0.0,0.0
17/04/2023,01:21:42,-0.000,0.0,0.0,0.0
17/04/2023,01:22:42,-0.000,0.0,0.0,0.0
17/04/2023,01:23:42,0.001,0.0,0.0,0.0
17/04/2023,01:24:42,0.001,0.0,0.0,0.0
17/04/2023,01:25:42,-0.001,0.0,0.0,0.0
17/04/2023,01:26:42,0.001,0.0,0.0,0.0
17/04/2023,01:27:42,-0.001,0.0,0.0,0.0
17/04/2023,01:28:42,0.001,0.0,0.0,0.0
17/04/2023,01:29:42,-0.001,0.0,0.0,0.0
17/04/2023,01:30:42,0.000,0.0,0.0,0.0
17/04/2023,01:31:42,-0.000,0.0,0.0,0.0
17/04/2023,01:32:42,-0.000,0.0,0.0,0.0
17/04/2023,01:33:42,0.001,0.0,0.0,0.0
17/04/2023,01:34:42,0.000,0.0,0.0,0.0
17/04/2023,01:35:42,-0.000,0.0,0.0,0.0
17/04/2023,01:36:42,-0.001,0.0,0.0,0.0
17/04/2023,01:37:42,-0.000,0.0,0.0,0.0
17/04/2023,01:38:42,0.000,0.0,0.0,0.0
17/04/2023,01:39:42,-0.000,0.0,0.0,0.0
17/04/2023,01:40:42,-0.001,0.0,0.0,0.0
17/04/2023,01:41:42,0.000,0.0,0.0,0.0
17/04/2023,01:42:42,-0.000,0.0,0.0,0.0
17/04/2023,01:43:42,-0.000,0.0,0.0,0.0
17/04/2023,01:44:42,0.000,0.0,0.0,0.0
17/04/2023,01:45:42,0.000,0.0,0.0,0.0
17/04/2023,01:46:42,-0.000,0.0,0.0,0.0
17/04/2023,01:47:42,0.000,0.0,0.0,0.0
17/04/2023,01:48:41,0.000,0.0,0.0,0.0
17/04/2023,01:49:42,-0.000,0.0,0.0,0.0
17/04/2023,01:50:42,-0.001,0.0,0.0,0.0
17/04/2023,01:51:42,-0.001,0.0,0.0,0.0
17/04/2023,01:52:42,-0.000,0.0,0.0,0.0
17/04/2023,01:53:42,-0.001,0.0,0.0,0.0
17/04/2023,01:54:42,0.001,0.0,0.0,0.0
17/04/2023,01:55:42,0.000,0.0,0.0,0.0
17/04/2023,01:56:42,-0.000,0.0,0.0,0.0
17/04/2023,01:57:42,-0.000,0.0,0.0,0.0
17/04/2023,01:58:42,0.000,0.0,0.0,0.0
17/04/2023,01:59:42,0.000,0.0,0.0,0.0
17/04/2023,02:00:42,0.000,0.0,0.0,0.0
17/04/2023,02:01:42,-0.001,0.0,0.0,0.0
17/04/2023,02:02:42,0.000,0.0,0.0,0.0
17/04/2023,02:03:42,0.001,0.0,0.0,0.0
17/04/2023,02:04:42,0.000,0.0,0.0,0.0
17/04/2023,02:05:42,0.000,0.0,0.0,0.0
17/04/2023,02:06:42,0.001,0.0,0.0,0.0
17/04/2023,02:07:42,0.001,0.0,0.0,0.0
17/04/2023,02:08:42,0.000,0.0,0.0,0.0
17/04/2023,02:09:42,0.000,0.0,0.0,0.0
17/04/2023,02:10:42,0.000,0.0,0.0,0.0
17/04/2023,02:11:42,0.001,0.0,0.0,0.0
17/04/2023,02:12:42,0.001,0.0,0.0,0.0
17/04/2023,02:13:42,0.001,0.0,0.0,0.0
17/04/2023,02:14:42,0.000,0.0,0.0,0.0
17/04/2023,02:15:42,-0.001,0.0,0.0,0.0
17/04/2023,02:16:42,0.000,0.0,0.0,0.0
17/04/2023,02:17:42,-0.000,0.0,0.0,0.0
17/04/2023,02:18:43,0.000,0.0,0.0,0.0
17/04/2023,02:19:42,-0.001,0.0,0.0,0.0
17/04/2023,02:20:42,-0.000,0.0,0.0,0.0
17/04/2023,02:21:42,0.000,0.0,0.0,0.0
17/04/2023,02:22:42,0.000,0.0,0.0,0.0
17/04/2023,02:23:42,-0.000,0.0,0.0,0.0
17/04/2023,02:24:42,-0.001,0.0,0.0,0.0
17/04/2023,02:25:42,0.000,0.0,0.0,0.0
17/04/2023,02:26:42,-0.001,0.0,0.0,0.0
17/04/2023,02:27:42,-0.000,0.0,0.0,0.0
17/04/2023,02:28:42,-0.000,0.0,0.0,0.0
17/04/2023,02:29:42,-0.001,0.0,0.0,0.0
17/04/2023,02:30:42,-0.001,0.0,0.0,0.0
17/04/2023,02:31:42,-0.001,0.0,0.0,0.0
17/04/2023,02:32:42,0.000,0.0,0.0,0.0
17/04/2023,02:33:42,-0.001,0.0,0.0,0.0
17/04/2023,02:34:42,-0.000,0.0,0.0,0.0
17/04/2023,02:35:42,0.001,0.0,0.0,0.0
17/04/2023,02:36:42,-0.000,0.0,0.0,0.0
17/04/2023,02:37:42,-0.000,0.0,0.0,0.0
17/04/2023,02:38:42,0.001,0.0,0.0,0.0
17/04/2023,02:39:42,-0.000,0.0,0.0,0.0
17/04/2023,02:40:42,0.000,0.0,0.0,0.0
17/04/2023,02:41:42,-0.000,0.0,0.0,0.0
17/04/2023,02:42:42,0.001,0.0,0.0,0.0
17/04/2023,02:43:42,-0.001,0.0,0.0,0.0
17/04/2023,02:44:42,0.000,0.0,0.0,0.0
17/04/2023,02:45:42,-0.001,0.0,0.0,0.0
17/04/2023,02:46:42,0.000,0.0,0.0,0.0
17/04/2023,02:47:42,-0.000,0.0,0.0,0.0
17/04/2023,02:48:42,0.000,0.0,0.0,0.0
17/04/2023,02:49:42,-0.001,0.0,0.0,0.0
17/04/2023,02:50:42,0.000,0.0,0.0,0.0
17/04/2023,02:51:42,-0.000,0.0,0.0,0.0
17/04/2023,02:52:42,-0.000,0.0,0.0,0.0
17/04/2023,02:53:42,0.000,0.0,0.0,0.0
17/04/2023,02:54:42,-0.001,0.0,0.0,0.0
17/04/2023,02:55:42,-0.000,0.0,0.0,0.0
17/04/2023,02:56:42,-0.000,0.0,0.0,0.0
17/04/2023,02:57:42,-0.000,0.0,0.0,0.0
17/04/2023,02:58:42,-0.000,0.0,0.0,0.0
17/04/2023,02:59:42,-0.000,0.0,0.0,0.0
17/04/2023,03:00:42,-0.001,0.0,0.0,0.0
17/04/2023,03:01:42,-0.000,0.0,0.0,0.0
17/04/2023,03:02:43,0.000,0.0,0.0,0.0
17/04/2023,03:03:43,0.000,0.0,0.0,0.0
17/04/2023,03:04:42,-0.000,0.0,0.0,0.0
17/04/2023,03:05:42,-0.001,0.0,0.0,0.0
17/04/2023,03:06:42,0.000,0.0,0.0,0.0
17/04/2023,03:07:42,-0.000,0.0,0.0,0.0
17/04/2023,03:08:42,-0.001,0.0,0.0,0.0
17/04/2023,03:09:42,-0.000,0.0,0.0,0.0
17/04/2023,03:10:43,-0.001,0.0,0.0,0.0
17/04/2023,03:11:42,0.001,0.0,0.0,0.0
17/04/2023,03:12:42,0.001,0.0,0.0,0.0
17/04/2023,03:13:42,0.000,0.0,0.0,0.0
17/04/2023,03:14:42,0.000,0.0,0.0,0.0
17/04/2023,03:15:43,-0.001,0.0,0.0,0.0
17/04/2023,03:16:42,-0.000,0.0,0.0,0.0
17/04/2023,03:17:42,0.000,0.0,0.0,0.0
17/04/2023,03:18:42,-0.001,0.0,0.0,0.0
17/04/2023,03:19:42,0.001,0.0,0.0,0.0
17/04/2023,03:20:42,-0.000,0.0,0.0,0.0
17/04/2023,03:21:42,-0.000,0.0,0.0,0.0
17/04/2023,03:22:42,0.001,0.0,0.0,0.0
17/04/2023,03:23:42,0.000,0.0,0.0,0.0
17/04/2023,03:24:42,-0.000,0.0,0.0,0.0
17/04/2023,03:25:42,0.000,0.0,0.0,0.0
17/04/2023,03:26:42,0.001,0.0,0.0,0.0
17/04/2023,03:27:42,-0.000,0.0,0.0,0.0
17/04/2023,03:28:42,0.000,0.0,0.0,0.0
17/04/2023,03:29:42,0.000,0.0,0.0,0.0
17/04/2023,03:30:42,0.000,0.0,0.0,0.0
17/04/2023,03:31:43,-0.001,0.0,0.0,0.0
17/04/2023,03:32:42,0.000,0.0,0.0,0.0
17/04/2023,03:33:42,-0.000,0.0,0.0,0.0
17/04/2023,03:34:42,-0.000,0.0,0.0,0.0
17/04/2023,03:35:42,-0.001,0.0,0.0,0.0
17/04/2023,03:36:42,-0.000,0.0,0.0,0.0
17/04/2023,03:37:42,0.000,0.0,0.0,0.0
17/04/2023,03:38:42,0.001,0.0,0.0,0.0
17/04/2023,03:39:42,0.000,0.0,0.0,0.0
17/04/2023,03:40:42,-0.000,0.0,0.0,0.0
17/04/2023,03:41:42,0.000,0.0,0.0,0.0
17/04/2023,03:42:42,0.000,0.0,0.0,0.0
17/04/2023,03:43:42,-0.001,0.0,0.0,0.0
17/04/2023,03:44:43,-0.000,0.0,0.0,0.0
17/04/2023,03:45:42,0.000,0.0,0.0,0.0
17/04/2023,03:46:42,-0.000,0.0,0.0,0.0
17/04/2023,03:47:42,-0.001,0.0,0.0,0.0
17/04/2023,03:48:43,0.001,0.0,0.0,0.0
17/04/2023,03:49:42,0.000,0.0,0.0,0.0
17/04/2023,03:50:42,0.000,0.0,0.0,0.0
17/04/2023,03:51:42,-0.000,0.0,0.0,0.0
17/04/2023,03:52:42,-0.000,0.0,0.0,0.0
17/04/2023,03:53:42,0.000,0.0,0.0,0.0
17/04/2023,03:54:43,-0.001,0.0,0.0,0.0
17/04/2023,03:55:43,-0.000,0.0,0.0,0.0
17/04/2023,03:56:42,-0.000,0.0,0.0,0.0
17/04/2023,03:57:42,0.000,0.0,0.0,0.0
17/04/2023,03:58:42,0.000,0.0,0.0,0.0
17/04/2023,03:59:42,0.000,0.0,0.0,0.0
17/04/2023,04:00:42,0.000,0.0,0.0,0.0
17/04/2023,04:01:43,0.000,0.0,0.0,0.0
17/04/2023,04:02:43,0.001,0.0,0.0,0.0
17/04/2023,04:03:43,-0.001,0.0,0.0,0.0
17/04/2023,04:04:43,0.001,0.0,0.0,0.0
17/04/2023,04:05:42,0.000,0.0,0.0,0.0
17/04/2023,04:06:42,0.001,0.0,0.0,0.0
17/04/2023,04:07:42,0.000,0.0,0.0,0.0
17/04/2023,04:08:43,-0.001,0.0,0.0,0.0
17/04/2023,04:09:42,0.001,0.0,0.0,0.0
17/04/2023,04:10:42,0.000,0.0,0.0,0.0
17/04/2023,04:11:42,0.000,0.0,0.0,0.0
17/04/2023,04:12:42,-0.001,0.0,0.0,0.0
17/04/2023,04:13:42,0.000,0.0,0.0,0.0
17/04/2023,04:14:42,0.001,0.0,0.0,0.0
17/04/2023,04:15:41,0.000,0.0,0.0,0.0
17/04/2023,04:16:43,0.000,0.0,0.0,0.0
17/04/2023,04:17:43,0.000,0.0,0.0,0.0
17/04/2023,04:18:42,-0.001,0.0,0.0,0.0
17/04/2023,04:19:42,0.000,0.0,0.0,0.0
17/04/2023,04:20:42,0.000,0.0,0.0,0.0
17/04/2023,04:21:42,0.000,0.0,0.0,0.0
17/04/2023,04:22:43,0.001,0.0,0.0,0.0
17/04/2023,04:23:42,0.001,0.0,0.0,0.0
17/04/2023,04:24:42,0.001,0.0,0.0,0.0
17/04/2023,04:25:42,0.000,0.0,0.0,0.0
17/04/2023,04:26:43,0.000,0.0,0.0,0.0
17/04/2023,04:27:43,0.000,0.0,0.0,0.0
17/04/2023,04:28:42,0.000,0.0,0.0,0.0
17/04/2023,04:29:42,0.000,0.0,0.0,0.0
17/04/2023,04:30:42,0.001,0.0,0.0,0.0
17/04/2023,04:31:42,0.000,0.0,0.0,0.0
17/04/2023,04:32:42,0.000,0.0,0.0,0.0
17/04/2023,04:33:42,0.000,0.0,0.0,0.0
17/04/2023,04:34:42,0.000,0.0,0.0,0.0
17/04/2023,04:35:42,0.001,0.0,0.0,0.0
17/04/2023,04:36:42,0.001,0.0,0.0,0.0
17/04/2023,04:37:42,0.001,0.0,0.0,0.0
17/04/2023,04:38:42,0.001,0.0,0.0,0.0
17/04/2023,04:39:42,0.001,0.0,0.0,0.0
17/04/2023,04:40:42,-0.000,0.0,0.0,0.0
17/04/2023,04:41:42,0.002,0.0,0.0,0.0
17/04/2023,04:42:43,0.001,0.0,0.0,0.0
17/04/2023,04:43:43,0.001,0.0,0.0,0.0
17/04/2023,04:44:43,0.001,0.0,0.0,0.0
17/04/2023,04:45:42,0.000,0.0,0.0,0.0
17/04/2023,04:46:42,0.001,0.0,0.0,0.0
17/04/2023,04:47:42,0.001,0.0,0.0,0.0
17/04/2023,04:48:42,0.001,0.0,0.0,0.0
17/04/2023,04:49:42,0.001,0.0,0.0,0.0
17/04/2023,04:50:42,0.001,0.0,0.0,0.0
17/04/2023,04:51:43,0.001,0.0,0.0,0.0
17/04/2023,04:52:43,0.001,0.0,0.0,0.0
17/04/2023,04:53:42,0.001,0.0,0.0,0.0
17/04/2023,04:54:42,0.000,0.0,0.0,0.0
17/04/2023,04:55:42,0.002,0.0,0.0,0.0
17/04/2023,04:56:42,0.001,0.0,0.0,0.0
17/04/2023,04:57:43,0.001,0.0,0.0,0.0
17/04/2023,04:58:43,0.001,0.0,0.0,0.0
17/04/2023,04:59:42,0.001,0.0,0.0,0.0
17/04/2023,05:00:43,0.001,0.0,0.0,0.0
17/04/2023,05:01:43,0.000,0.0,0.0,0.0
17/04/2023,05:02:42,0.001,0.0,0.0,0.0
17/04/2023,05:03:42,0.001,0.0,0.0,0.0
17/04/2023,05:04:42,0.001,0.0,0.0,0.0
17/04/2023,05:05:42,0.002,0.0,0.0,0.0
17/04/2023,05:06:42,0.001,0.0,0.0,0.0
17/04/2023,05:07:43,0.002,0.0,0.0,0.0
17/04/2023,05:08:42,0.002,0.0,0.0,0.0
17/04/2023,05:09:42,0.003,0.0,0.0,0.0
17/04/2023,05:10:42,0.003,0.0,0.0,0.0
17/04/2023,05:11:43,0.003,0.0,0.0,0.0
17/04/2023,05:12:43,0.003,0.0,0.0,0.0
17/04/2023,05:13:42,0.002,0.0,0.0,0.0
17/04/2023,05:14:42,0.004,0.0,0.0,0.0
17/04/2023,05:15:42,0.003,0.0,0.0,0.0
17/04/2023,05:16:43,0.003,0.0,0.0,0.0
17/04/2023,05:17:42,0.003,0.0,0.0,0.0
17/04/2023,05:18:43,0.004,0.0,0.0,0.0
17/04/2023,05:19:43,0.004,0.0,0.0,0.0
17/04/2023,05:20:42,0.004,0.0,0.0,0.0
17/04/2023,05:21:42,0.004,0.0,0.0,0.0
17/04/2023,05:22:43,0.005,0.0,0.0,0.0
17/04/2023,05:23:42,0.004,0.0,0.0,0.0
17/04/2023,05:24:42,0.004,0.0,0.0,0.0
17/04/2023,05:25:42,0.005,0.0,0.0,0.0
17/04/2023,05:26:42,0.005,0.0,0.0,0.0
17/04/2023,05:27:42,0.005,0.0,0.0,0.0
17/04/2023,05:28:42,0.005,0.0,0.0,0.0
17/04/2023,05:29:42,0.006,0.0,0.0,0.0
17/04/2023,05:30:43,0.006,0.0,0.0,0.0
17/04/2023,05:31:43,0.006,0.0,0.0,0.0
17/04/2023,05:32:42,0.008,0.0,0.0,0.0
17/04/2023,05:33:43,0.007,0.0,0.0,0.0
17/04/2023,05:34:43,0.007,0.0,0.001,0.001
17/04/2023,05:35:42,0.006,0.0,0.001,0.0
17/04/2023,05:36:43,0.008,0.0,0.001,0.0
17/04/2023,05:37:43,0.009,0.0,0.001,0.0
17/04/2023,05:38:42,0.009,0.0,0.001,0.0
17/04/2023,05:39:43,0.008,0.0,0.001,0.0
17/04/2023,05:40:43,0.009,0.0,0.001,0.0
17/04/2023,05:41:41,0.010,0.0,0.001,0.0
17/04/2023,05:43:05,0.010,0.0,0.002,0.001
17/04/2023,05:44:43,0.011,0.0,0.002,0.0
17/04/2023,05:45:42,0.013,0.0,0.002,0.0
17/04/2023,05:46:43,0.014,0.0,0.002,0.0
17/04/2023,05:47:43,0.015,0.0,0.003,0.001
17/04/2023,05:48:42,0.016,0.0,0.003,0.0
17/04/2023,05:49:42,0.019,0.0,0.003,0.0
17/04/2023,05:50:42,0.020,0.0,0.004,0.001
17/04/2023,05:51:42,0.021,0.0,0.004,0.0
17/04/2023,05:52:42,0.022,0.0,0.004,0.0
17/04/2023,05:53:42,0.023,0.0,0.005,0.001
17/04/2023,05:54:43,0.024,0.0,0.005,0.0
17/04/2023,05:55:43,0.025,0.0,0.005,0.0
17/04/2023,05:56:42,0.026,0.0,0.006,0.001
17/04/2023,05:57:42,0.026,0.0,0.006,0.0
17/04/2023,05:58:42,0.027,0.0,0.007,0.001
17/04/2023,05:59:42,0.027,0.0,0.007,0.0
17/04/2023,06:00:43,0.028,0.0,0.008,0.001
17/04/2023,06:01:43,0.027,0.0,0.008,0.0
17/04/2023,06:02:43,0.029,0.0,0.009,0.001
17/04/2023,06:03:42,0.027,0.0,0.009,0.0
17/04/2023,06:04:42,0.028,0.0,0.009,0.0
17/04/2023,06:05:42,0.029,0.0,0.01,0.001
17/04/2023,06:06:43,0.029,0.0,0.01,0.0
17/04/2023,06:07:43,0.031,0.0,0.011,0.001
17/04/2023,06:08:42,0.031,0.0,0.011,0.0
17/04/2023,06:09:43,0.033,0.0,0.012,0.001
17/04/2023,06:10:43,0.034,0.0,0.013,0.001
17/04/2023,06:11:43,0.036,0.0,0.013,0.0
17/04/2023,06:12:42,0.037,0.0,0.014,0.001
17/04/2023,06:13:42,0.038,0.0,0.014,0.0
17/04/2023,06:14:43,0.040,0.0,0.015,0.001
17/04/2023,06:15:42,0.042,0.0,0.016,0.001
17/04/2023,06:16:43,0.044,0.0,0.016,0.0
17/04/2023,06:17:42,0.044,0.0,0.017,0.001
17/04/2023,06:18:43,0.047,0.0,0.018,0.001
17/04/2023,06:19:43,0.048,0.0,0.019,0.001
17/04/2023,06:20:42,0.051,0.0,0.02,0.001
17/04/2023,06:21:43,0.052,0.0,0.02,0.0
17/04/2023,06:22:43,0.054,0.0,0.021,0.001
17/04/2023,06:23:43,0.055,0.0,0.022,0.001
17/04/2023,06:24:43,0.057,0.0,0.023,0.001
17/04/2023,06:25:43,0.058,0.0,0.024,0.001
17/04/2023,06:26:43,0.059,0.0,0.025,0.001
17/04/2023,06:27:43,0.060,0.0,0.026,0.001
17/04/2023,06:28:43,0.061,0.0,0.027,0.001
17/04/2023,06:29:42,0.062,0.0,0.028,0.001
17/04/2023,06:30:42,0.062,0.0,0.029,0.001
17/04/2023,06:31:43,0.063,0.0,0.03,0.001
17/04/2023,06:32:42,0.063,0.0,0.031,0.001
17/04/2023,06:33:42,0.063,0.0,0.032,0.001
17/04/2023,06:34:42,0.064,0.0,0.033,0.001
17/04/2023,06:35:42,0.065,0.0,0.034,0.001
17/04/2023,06:36:42,0.065,0.0,0.036,0.002
17/04/2023,06:37:43,0.065,0.0,0.037,0.001
17/04/2023,06:38:43,0.066,0.0,0.038,0.001
17/04/2023,06:39:42,0.066,0.0,0.039,0.001
17/04/2023,06:40:42,0.068,0.0,0.04,0.001
17/04/2023,06:41:42,0.070,0.0,0.041,0.001
17/04/2023,06:42:43,0.070,0.0,0.042,0.001
17/04/2023,06:43:42,0.069,0.0,0.043,0.001
17/04/2023,06:44:42,0.066,0.0,0.045,0.002
17/04/2023,06:45:42,0.063,0.0,0.046,0.001
17/04/2023,06:46:42,0.063,0.0,0.047,0.001
17/04/2023,06:47:42,0.063,0.0,0.048,0.001
17/04/2023,06:48:42,0.064,0.0,0.049,0.001
17/04/2023,06:49:43,0.063,0.0,0.05,0.001
17/04/2023,06:50:42,0.063,0.0,0.051,0.001
17/04/2023,06:51:42,0.060,0.0,0.052,0.001
17/04/2023,06:52:42,0.059,0.0,0.053,0.001
17/04/2023,06:53:42,0.056,0.0,0.054,0.001
17/04/2023,06:54:43,0.056,0.0,0.055,0.001
17/04/2023,06:55:42,0.055,0.0,0.056,0.001
17/04/2023,06:56:43,0.054,0.0,0.057,0.001
17/04/2023,06:57:43,0.054,0.0,0.058,0.001
17/04/2023,06:58:43,0.057,0.0,0.058,0.0
17/04/2023,06:59:42,0.059,0.0,0.059,0.001
17/04/2023,07:00:43,0.062,0.0,0.06,0.001
17/04/2023,07:01:42,0.065,0.0,0.062,0.002
17/04/2023,07:03:05,0.068,0.0,0.063,0.001
17/04/2023,07:04:43,0.068,0.0,0.065,0.002
17/04/2023,07:05:43,0.067,0.0,0.066,0.001
17/04/2023,07:06:42,0.067,0.0,0.067,0.001
17/04/2023,07:07:42,0.066,0.0,0.068,0.001
17/04/2023,07:08:44,0.066,0.0,0.069,0.001
17/04/2023,07:09:43,0.067,0.0,0.07,0.001
17/04/2023,07:10:43,0.066,0.0,0.072,0.002
17/04/2023,07:11:43,0.067,0.0,0.073,0.001
17/04/2023,07:12:43,0.068,0.0,0.074,0.001
17/04/2023,07:13:43,0.067,0.0,0.075,0.001
17/04/2023,07:14:42,0.068,0.0,0.076,0.001
17/04/2023,07:15:42,0.068,0.0,0.077,0.001
17/04/2023,07:16:43,0.069,0.0,0.078,0.001
17/04/2023,07:17:43,0.069,0.0,0.079,0.001
17/04/2023,07:18:43,0.070,0.0,0.081,0.002
17/04/2023,07:19:42,0.072,0.0,0.082,0.001
17/04/2023,07:20:43,0.074,0.0,0.083,0.001
17/04/2023,07:21:43,0.076,0.0,0.084,0.001
17/04/2023,07:22:43,0.077,0.0,0.086,0.002
17/04/2023,07:23:43,0.080,0.0,0.087,0.001
17/04/2023,07:24:43,0.082,0.0,0.088,0.001
17/04/2023,07:25:43,0.085,0.0,0.09,0.002
17/04/2023,07:26:43,0.088,0.0,0.091,0.001
17/04/2023,07:27:42,0.092,0.0,0.093,0.002
17/04/2023,07:28:42,0.095,0.0,0.094,0.001
17/04/2023,07:29:42,0.098,0.0,0.096,0.002
17/04/2023,07:30:42,0.100,0.0,0.097,0.001
17/04/2023,07:31:43,0.102,0.0,0.099,0.002
17/04/2023,07:32:43,0.103,0.0,0.101,0.002
17/04/2023,07:33:43,0.104,0.0,0.102,0.001
17/04/2023,07:34:43,0.107,0.0,0.104,0.002
17/04/2023,07:35:43,0.110,0.0,0.106,0.002
17/04/2023,07:36:42,0.113,0.0,0.108,0.002
17/04/2023,07:37:42,0.116,0.0,0.11,0.002
17/04/2023,07:38:43,0.119,0.0,0.112,0.002
17/04/2023,07:39:43,0.122,0.0,0.114,0.002
17/04/2023,07:40:43,0.126,0.0,0.116,0.002
17/04/2023,07:41:43,0.131,0.0,0.118,0.002
17/04/2023,07:42:42,0.137,0.0,0.12,0.002
17/04/2023,07:43:43,0.144,0.0,0.123,0.003
17/04/2023,07:44:43,0.154,0.0,0.125,0.002
17/04/2023,07:45:43,0.162,0.0,0.128,0.003
17/04/2023,07:46:42,0.171,0.0,0.13,0.002
17/04/2023,07:47:42,0.177,0.0,0.133,0.003
17/04/2023,07:48:42,0.185,0.0,0.136,0.003
17/04/2023,07:49:43,0.189,0.0,0.139,0.003
17/04/2023,07:50:43,0.194,0.0,0.143,0.004
17/04/2023,07:51:43,0.199,0.0,0.146,0.003
17/04/2023,07:52:43,0.207,0.0,0.149,0.003
17/04/2023,07:53:43,0.215,0.0,0.153,0.004
17/04/2023,07:54:43,0.226,1.0,0.157,0.004
17/04/2023,07:55:42,0.240,1.0,0.16,0.003
17/04/2023,07:56:43,0.254,1.0,0.165,0.005
17/04/2023,07:57:43,0.268,1.0,0.169,0.004
17/04/2023,07:58:43,0.280,1.0,0.173,0.004
17/04/2023,07:59:43,0.292,1.0,0.178,0.005
17/04/2023,08:00:42,0.303,1.0,0.183,0.005
17/04/2023,08:01:44,0.312,1.0,0.189,0.006
17/04/2023,08:02:44,0.321,1.0,0.194,0.005
17/04/2023,08:03:43,0.326,1.0,0.199,0.005
17/04/2023,08:04:43,0.332,1.0,0.205,0.006
17/04/2023,08:05:43,0.333,1.0,0.21,0.005
17/04/2023,08:06:43,0.334,1.0,0.216,0.006
17/04/2023,08:07:42,0.336,1.0,0.221,0.005
17/04/2023,08:08:43,0.336,1.0,0.227,0.006
17/04/2023,08:09:43,0.337,1.0,0.232,0.005
17/04/2023,08:10:43,0.334,1.0,0.238,0.006
17/04/2023,08:11:43,0.332,1.0,0.244,0.006
17/04/2023,08:12:44,0.327,1.0,0.249,0.005
17/04/2023,08:13:43,0.326,1.0,0.255,0.006
17/04/2023,08:14:43,0.325,1.0,0.26,0.005
17/04/2023,08:15:43,0.325,1.0,0.265,0.005
17/04/2023,08:16:43,0.326,1.0,0.271,0.006
17/04/2023,08:17:43,0.327,1.0,0.276,0.005
17/04/2023,08:18:42,0.329,1.0,0.282,0.006
17/04/2023,08:20:05,0.332,1.0,0.289,0.007
17/04/2023,08:21:43,0.336,1.0,0.298,0.009
17/04/2023,08:22:43,0.338,1.0,0.304,0.006
17/04/2023,08:23:43,0.339,1.0,0.31,0.006
17/04/2023,08:24:43,0.342,1.0,0.315,0.005
17/04/2023,08:25:42,0.346,1.0,0.321,0.006
17/04/2023,08:26:43,0.351,1.0,0.327,0.006
17/04/2023,08:27:43,0.356,1.0,0.333,0.006
17/04/2023,08:28:43,0.359,1.0,0.339,0.006
17/04/2023,08:29:42,0.362,1.0,0.345,0.006
17/04/2023,08:30:43,0.363,1.0,0.351,0.006
17/04/2023,08:31:43,0.361,1.0,0.357,0.006
17/04/2023,08:32:42,0.356,1.0,0.363,0.006
17/04/2023,08:33:43,0.348,1.0,0.369,0.006
17/04/2023,08:34:42,0.342,1.0,0.374,0.005
17/04/2023,08:35:42,0.338,1.0,0.38,0.006
17/04/2023,08:36:42,0.338,1.0,0.386,0.006
17/04/2023,08:37:42,0.340,1.0,0.391,0.005
17/04/2023,08:38:43,0.344,1.0,0.397,0.006
17/04/2023,08:39:43,0.350,1.0,0.403,0.006
17/04/2023,08:40:42,0.357,1.0,0.409,0.006
17/04/2023,08:41:43,0.365,1.0,0.415,0.006
17/04/2023,08:42:42,0.377,1.0,0.421,0.006
17/04/2023,08:43:43,0.393,1.0,0.427,0.006
17/04/2023,08:44:42,0.406,1.0,0.434,0.007
17/04/2023,08:45:43,0.419,1.0,0.441,0.007
17/04/2023,08:46:43,0.433,1.0,0.448,0.007
17/04/2023,08:47:43,0.447,1.0,0.455,0.007
17/04/2023,08:48:43,0.455,1.0,0.463,0.008
17/04/2023,08:49:42,0.467,1.0,0.47,0.007
17/04/2023,08:50:43,0.472,1.0,0.478,0.008
17/04/2023,08:51:43,0.468,1.0,0.486,0.008
17/04/2023,08:52:43,0.462,1.0,0.494,0.008
17/04/2023,08:53:43,0.451,1.0,0.501,0.007
17/04/2023,08:54:43,0.439,1.0,0.509,0.008
17/04/2023,08:55:43,0.420,1.0,0.516,0.007
17/04/2023,08:56:43,0.404,1.0,0.523,0.007
17/04/2023,08:57:43,0.389,1.0,0.53,0.007
17/04/2023,08:58:43,0.373,1.0,0.536,0.006
17/04/2023,08:59:42,0.360,1.0,0.542,0.006
17/04/2023,09:00:43,0.352,1.0,0.548,0.006
17/04/2023,09:01:43,0.342,1.0,0.554,0.006
17/04/2023,09:02:43,0.335,1.0,0.559,0.005
17/04/2023,09:03:43,0.324,1.0,0.565,0.006
17/04/2023,09:04:43,0.316,1.0,0.57,0.005
17/04/2023,09:05:43,0.313,1.0,0.576,0.006
17/04/2023,09:06:43,0.318,1.0,0.581,0.005
17/04/2023,09:07:43,0.330,1.0,0.586,0.005
17/04/2023,09:08:43,0.342,1.0,0.592,0.006
17/04/2023,09:09:42,0.347,1.0,0.597,0.005
17/04/2023,09:10:43,0.344,1.0,0.603,0.006
17/04/2023,09:11:43,0.341,1.0,0.609,0.006
17/04/2023,09:12:43,0.343,1.0,0.615,0.006
17/04/2023,09:13:43,0.344,1.0,0.62,0.005
17/04/2023,09:14:43,0.348,1.0,0.626,0.006
17/04/2023,09:15:42,0.356,1.0,0.632,0.006
17/04/2023,09:16:41,0.371,1.0,0.638,0.006
17/04/2023,09:17:43,0.396,1.0,0.644,0.006
17/04/2023,09:18:43,0.426,1.0,0.651,0.007
17/04/2023,09:19:43,0.457,1.0,0.659,0.008
17/04/2023,09:20:42,0.489,1.0,0.666,0.007
17/04/2023,09:21:43,0.532,1.0,0.675,0.009
17/04/2023,09:22:43,0.569,1.0,0.684,0.009
17/04/2023,09:23:43,0.598,1.0,0.694,0.01
17/04/2023,09:24:43,0.615,1.0,0.704,0.01
17/04/2023,09:25:42,0.631,1.0,0.714,0.01
17/04/2023,09:26:43,0.646,1.0,0.725,0.011
17/04/2023,09:27:43,0.656,2.0,0.736,0.011
17/04/2023,09:28:43,0.672,2.0,0.747,0.011
17/04/2023,09:29:43,0.672,2.0,0.758,0.011
17/04/2023,09:30:43,0.676,2.0,0.769,0.011
17/04/2023,09:31:43,0.682,2.0,0.781,0.012
17/04/2023,09:32:43,0.689,2.0,0.792,0.011
17/04/2023,09:33:42,0.718,2.0,0.804,0.012
17/04/2023,09:34:43,0.708,2.0,0.816,0.012
17/04/2023,09:35:43,0.723,2.0,0.828,0.012
17/04/2023,09:36:43,0.758,2.0,0.84,0.012
17/04/2023,09:37:43,0.774,2.0,0.853,0.013
17/04/2023,09:38:43,0.801,2.0,0.866,0.013
17/04/2023,09:39:43,0.808,2.0,0.88,0.014
17/04/2023,09:40:43,0.809,2.0,0.894,0.014
17/04/2023,09:41:43,0.819,2.0,0.907,0.013
17/04/2023,09:42:42,0.816,2.0,0.92,0.013
17/04/2023,09:43:42,0.842,2.0,0.934,0.014
17/04/2023,09:44:43,0.845,2.0,0.948,0.014
17/04/2023,09:45:43,0.879,2.0,0.962,0.014
17/04/2023,09:46:43,0.849,2.0,0.977,0.015
17/04/2023,09:47:43,0.888,2.0,0.992,0.015
17/04/2023,09:48:43,0.858,2.0,1.006,0.014
17/04/2023,09:49:42,0.856,2.0,1.02,0.014
17/04/2023,09:50:43,0.854,2.0,1.034,0.014
17/04/2023,09:51:43,0.879,2.0,1.049,0.015
17/04/2023,09:52:43,0.882,2.0,1.065,0.016
17/04/2023,09:53:43,0.870,2.0,1.08,0.015
17/04/2023,09:54:43,0.898,2.0,1.095,0.015
17/04/2023,09:55:43,0.906,2.0,1.11,0.015
17/04/2023,09:56:42,0.869,2.0,1.125,0.015
17/04/2023,09:57:43,0.841,2.0,1.139,0.014
17/04/2023,09:58:43,0.865,2.0,1.153,0.014
17/04/2023,09:59:42,0.912,2.0,1.169,0.016
17/04/2023,10:00:43,0.858,2.0,1.184,0.015
17/04/2023,10:01:43,0.877,2.0,1.198,0.014
17/04/2023,10:02:43,0.973,2.0,1.214,0.016